ICEYE-X25

operational
NORAD ID: 56963 Int'l Des: 2023-084 Owner: ICEYE Country: FI Constellation: iceye
LEOCIRCULARRETROGRADE

关于 ICEYE-X25

正在加载描述...

实时位置

正在加载3D地球...

即将过境

高度历史

Altitude vs Time

uPlot chart will show altitude changes over time

两行轨道根数

1 56963U 23084AH 26095.51663490 .00059201 00000-0 89410-3 0 9994
2 56963 97.5799 237.1322 0004404 197.0478 163.0628 15.54535282156665
Epoch: Apr 5, 2026 • Age: 6 hours

当前状态

高度 416.4 km
速度 7.66 km/s
星下点 -28.57°S, 130.63°E
发射日期 Jun 12, 2023
运行时间 2.8 years
类型 earth observation

技术详情

分类 Payload
质量 90.00 kg
干质量 89.00 kg
总质量 90.00 kg
长度 0.70 m
直径 0.50 m
跨度 3.25 m
形状 Box + pan
制造商 ICEYE
平台类型 ICEYE
阶段状态 In Orbit
所有者/国家 ICEYE/FI

大型星座

Loading constellations...